Dunkirk, NY

7:40 PM EST on November 21, 2019 (GMT -0500)
Chautauqua County-Dunkirk

Weather History for KDKK - September, 2019

Change the Weather History Date:

Saturday, September 14, 2019

  Actual Average Record
Temperature  
Mean Temperature 66 °F -  
Max Temperature 72 °F 73 °F 89 °F (1939)
Min Temperature 60 °F 55 °F 33 °F (1963)
Growing Degree Days 16 (Base 50)    
Moisture  
Dew Point 58 °F    
Average Humidity 75    
Maximum Humidity 87    
Minimum Humidity 57    
Precipitation  
Precipitation 0.08 in - - ()
Sea Level Pressure  
Sea Level Pressure 30.14 in    
Wind  
Wind Speed 17 mph (SW)    
Max Wind Speed 28 mph    
Max Gust Speed 41 mph    
Visibility 10 miles    
Events Rain , Thunderstorm    
Averages and records for this station are not official NWS values.
T = Trace of Precipitation, MM = Missing Value Source: NWS Daily Summary

Daily Weather History Graph

Daily Weather History Graph

Search for Another Location

Airport or City:

Astronomy

Sep. 14, 2019 Rise Set
Actual Time 6:55 AM EDT 7:28 PM EDT
Civil Twilight 6:27 AM EDT 7:57 PM EDT
Nautical Twilight 5:53 AM EDT 8:30 PM EDT
Astronomical Twilight 5:19 AM EDT 9:04 PM EDT
Moon 8:09 PM EDT (9/14) 7:06 AM EDT (9/14)
Length of Visible Light 13h 29m
Length of Day
12h 33m
Full, 100% of the Moon is Illuminated
Sep 14
Full
Sep 21
Last Quarter
Sep 28
New
Oct 5
First Quarter
Oct 13
Full

Hourly Weather History & Observations

Time (EDT) Temp. Dew Point Humidity Pressure Visibility Wind Dir Wind Speed Gust Speed Precip Events Conditions
12:44 AM 64.9 °F 60.1 °F 84% 30.06 in 10.0 mi South 23.0 mph 36.8 mph 0.05 in Rain , Thunderstorm Light Rain
12:53 AM 64.9 °F 60.1 °F 84% 30.06 in 10.0 mi South 24.2 mph 33.4 mph 0.05 in Rain Light Rain
1:13 AM 64.9 °F 60.1 °F 84% 30.07 in 6.0 mi South 21.9 mph 41.4 mph 0.02 in Rain , Thunderstorm Thunderstorms and Rain
1:28 AM 64.9 °F 61.0 °F 87% 30.07 in 10.0 mi South 20.7 mph 34.5 mph 0.03 in Rain Light Rain
1:53 AM 66.0 °F 61.0 °F 84% 30.06 in 10.0 mi South 27.6 mph 40.3 mph 0.03 in   Overcast
2:53 AM 66.0 °F 61.0 °F 84% 30.07 in 10.0 mi South 20.7 mph 33.4 mph 0.00 in Rain Light Rain
3:53 AM 66.0 °F 61.0 °F 84% 30.06 in 10.0 mi South 20.7 mph 36.8 mph 0.00 in   Mostly Cloudy
4:53 AM 66.9 °F 61.0 °F 81% 30.07 in 10.0 mi SW 13.8 mph - N/A   Overcast
5:30 AM 66.9 °F 62.1 °F 84% 30.09 in 10.0 mi South 16.1 mph 23.0 mph N/A   Overcast
5:53 AM 66.9 °F 62.1 °F 84% 30.09 in 10.0 mi SSW 13.8 mph - N/A   Overcast
6:53 AM 68.0 °F 63.0 °F 84% 30.12 in 10.0 mi WSW 13.8 mph 23.0 mph N/A   Overcast
7:53 AM 66.9 °F 57.9 °F 73% 30.14 in 10.0 mi WSW 5.8 mph - N/A   Overcast
8:53 AM 66.0 °F 59.0 °F 78% 30.16 in 10.0 mi West 5.8 mph - N/A   Overcast
9:53 AM 66.9 °F 55.9 °F 68% 30.17 in 10.0 mi West 11.5 mph - N/A   Overcast
10:18 AM 68.0 °F 55.0 °F 63% 30.18 in 10.0 mi West 9.2 mph - N/A   Mostly Cloudy
10:53 AM 68.0 °F 55.9 °F 65% 30.18 in 10.0 mi WSW 11.5 mph - N/A   Mostly Cloudy
11:21 AM 68.0 °F 55.9 °F 65% 30.18 in 10.0 mi WSW 13.8 mph 19.6 mph N/A   Scattered Clouds
11:53 AM 70.0 °F 55.9 °F 61% 30.18 in 10.0 mi WSW 17.3 mph 23.0 mph N/A   Scattered Clouds
12:53 PM 69.1 °F 57.0 °F 65% 30.17 in 10.0 mi WSW 12.7 mph 23.0 mph N/A   Partly Cloudy
1:53 PM 71.1 °F 55.0 °F 57% 30.17 in 10.0 mi WSW 16.1 mph 26.5 mph N/A   Clear
2:53 PM 71.1 °F 57.0 °F 61% 30.16 in 10.0 mi WSW 16.1 mph 24.2 mph N/A   Mostly Cloudy
3:53 PM 69.1 °F 57.0 °F 65% 30.16 in 10.0 mi WSW 13.8 mph 21.9 mph N/A   Mostly Cloudy
4:53 PM 70.0 °F 57.9 °F 65% 30.16 in 10.0 mi WSW 17.3 mph 25.3 mph N/A   Mostly Cloudy
5:04 PM 70.0 °F 57.9 °F 65% 30.16 in 10.0 mi West 17.3 mph 27.6 mph N/A   Scattered Clouds
5:53 PM 69.1 °F 59.0 °F 70% 30.17 in 10.0 mi WSW 12.7 mph 25.3 mph N/A   Mostly Cloudy
6:53 PM 68.0 °F 57.9 °F 70% 30.17 in 10.0 mi WSW 11.5 mph - N/A   Scattered Clouds
7:53 PM 66.0 °F 57.9 °F 75% 30.17 in 10.0 mi SW 8.1 mph - N/A   Partly Cloudy
8:53 PM 61.0 °F 57.0 °F 87% 30.18 in 10.0 mi SSW 5.8 mph - N/A   Clear
9:53 PM 60.1 °F 55.9 °F 86% 30.19 in 10.0 mi SSW 5.8 mph - N/A   Clear
10:53 PM 63.0 °F 57.0 °F 81% 30.19 in 10.0 mi SSW 5.8 mph - N/A   Clear
11:53 PM 60.1 °F 55.9 °F 86% 30.19 in 10.0 mi SSW 5.8 mph - N/A   Clear